SHIJIAN-21 (SJ-21)

Last updated on Thu Jul 03 2025 00:02:48 GMT+0000 (Coordinated Universal Time)

1 49330U 21094A 25183.09665282 -.00000354 00000+0 00000+0 0 9993 2 49330 10.5181 42.3920 0064066 183.9174 216.3729 1.00274608 13745
UTC large
Height (km)
Speed (km/s)
/
Latitude / Longitude
Inclination (degrees)
Orbital Period (minutes)
Azimuth
Elevation
Range (km)
Doppler Factor

Next 0 passes for location: London (51.5072 / 0.1276)

Sorry there are no passes over London.